OPS 4682 DEB, 38426

Orbit data source: Space-Track

OPS 4682 DEB, 38426 is space debris in LEO originally from a launch on Sat, 03 Apr 1965 UTC launched from the Air Force Western Test Range (AFWTR). Debris objects in space refer to the collection of defunct objects orbiting the Earth. Examples of debris include non-operational satellites, rocket bodies, and fragments generated from explosions, collisions, or faulty payload assembly.

Loading next visibility...
Identifier
38426, 1965-027EF
Orbit
LEO
Country
Flag of USUS
Related business
Manufacturer
Unknown
Mission
Spacecraft
Bus & Motor
Unknown
Mass
Unknown
Launch date (UTC)
1965-04-03 (61 years ago)
Launch vehicle
Unknown
Launch site
Air Force Western Test Range (AFWTR)
Object type
Payload
Rocket body
Debris
Shape & HBR
Unknown shape, 0.1 m
Radar Cross Section
Small (<0.1 m²)

Expand to show TLE details & history
Last TLE update: 3 days ago

TLE from 3 days ago
0 OPS 4682 DEB
1 38426U 65027EF  25292.18913475  .00000644  00000-0  22334-2 0  9991
2 38426  90.2460   4.7083 0036473  66.6662 293.8289 12.96028113603848
Epoch: 2025-10-19T04:32Z
TLE epoch observation values (Epoch: 2025-10-19T04:32:21.242Z)
Latitude
-0.00001°
Longitude
-91.28958°
Altitude
1,269.368 km
Speed
7.226 km/s
True Right ascension
00h 18m 49s
True Declination
0° 00' 00"
Sunlit
Object was in full shadow at epoch
Visualization orbit readout
Latitude
Unknown
Longitude
Unknown
Altitude
Unknown
Speed
Unknown
Apparent Right ascension
Unknown
Apparent Declination
Unknown
Sunlit
N/A
Visualization observer readout
Local Sidereal Time
12:45:47
Azimuth
Unknown
Elevation
Unknown
Doppler factor
Unknown
Orbital elements
Apogee altitude
1,302.734 km
Perigee altitude
1,246.909 km
Semi-major axis
7,652.958 km
Eccentricity
0.00365
Inclination
90.246°
RAAN
4.7083°
Arg. of periapsis
66.6662°
True anomaly
293.44588°
Mean anomaly
293.8289°
Eccentric anomaly
293.63746°
Mean motion
3.2419 °/min
Orbital period
111.05 mins
BSTAR
0.0022334
Loading maneuver chart data...
Computing Atmospheric mass density...
Loading historical data...
Loading historical data...
Loading historical data...
Loading historical data...
Loading historical data...
Loading historical data...
Loading historical data...

Documentation

Showing up to 5 results
|